Location: Titusville
(28.6120°N, 80.8080°W)
Time: 02:08:51
(UTC-04:00)

Hubble Space Telescope - Visible Passes

Search period start: 25 March 2019 00:00
Search period end: 04 April 2019 00:00
Orbit: 537 x 540 km, 28.5° (Epoch: 24 March)

Date Brightness Start Highest point End Pass type
(mag) Time Alt. Az. Time Alt. Az. Time Alt. Az.
25 Mar 0.8 20:48:27 10° WSW 20:52:32 61° SSE 20:53:49 39° ESE visible
26 Mar 0.8 20:37:56 10° WSW 20:42:03 70° S 20:44:06 28° E visible
26 Mar 3.9 22:19:06 10° W 22:19:27 12° W 22:19:27 12° W visible
27 Mar 0.7 20:27:26 10° WSW 20:31:35 78° S 20:34:20 20° E visible
27 Mar 3.5 22:08:39 10° W 22:09:41 17° W 22:09:41 17° W visible
28 Mar 0.7 20:16:58 10° W 20:21:07 84° S 20:24:32 15° E visible
28 Mar 3.0 21:58:11 10° W 21:59:53 24° W 21:59:53 24° W visible
29 Mar 0.8 20:06:30 10° W 20:10:38 88° S 20:14:41 11° E visible
29 Mar 2.4 21:47:43 10° W 21:50:02 32° W 21:50:02 32° W visible
30 Mar 0.8 19:56:02 10° W 20:00:11 90° SSE 20:04:20 10° E visible
30 Mar 1.8 21:37:16 10° W 21:40:11 42° WSW 21:40:11 42° WSW visible
31 Mar 1.3 21:26:50 10° W 21:30:20 50° SW 21:30:20 50° SW visible
01 Apr 1.3 21:16:24 10° W 21:20:22 46° SSW 21:20:30 46° S visible
02 Apr 1.6 21:06:00 10° W 21:09:51 38° SSW 21:10:40 34° S visible
03 Apr 2.0 20:55:39 10° W 20:59:20 31° SSW 21:00:53 24° SSE visible
